KUG295 LPMA-GCLA

Flight info

Callsign KUG295
Flight time 1h 22m
Altitude 35000
Route GOSGA UQ143 ORTIS DCT SAMAR DCT LZR DCT RUSIK
Aircraft B739/M-SDE2E3FGHIRWXY/LB1

Departure

Time 2026-04-21 18:14
Airport Cristiano Ronaldo International Airport (LPMA)

Arrival

Time 2026-04-21 19:37
Airport La Palma Airport (GCLA)
Time Latitude Longitude Altitude Speed Heading
2026-04-21 18:00 32.69414 -16.77594 175 ft 0 kts 138°
2026-04-21 18:07 32.69421 -16.77602 175 ft 3 kts 140°
2026-04-21 18:08 32.69437 -16.77617 175 ft 3 kts 148°
2026-04-21 18:08 32.69454 -16.77628 175 ft 3 kts 165°
2026-04-21 18:08 32.69472 -16.77630 175 ft 3 kts 206°
2026-04-21 18:08 32.69479 -16.77625 175 ft 0 kts 226°
2026-04-21 18:11 32.69466 -16.77642 175 ft 5 kts 226°
2026-04-21 18:12 32.69439 -16.77674 181 ft 6 kts 226°
2026-04-21 18:12 32.69410 -16.77710 175 ft 7 kts 226°
2026-04-21 18:12 32.69373 -16.77756 175 ft 9 kts 225°
2026-04-21 18:12 32.69327 -16.77812 175 ft 10 kts 226°
2026-04-21 18:13 32.69295 -16.77891 175 ft 12 kts 266°
2026-04-21 18:13 32.69335 -16.77965 175 ft 12 kts 359°
2026-04-21 18:13 32.69354 -16.77953 175 ft 0 kts 41°
2026-04-21 18:13 32.69395 -16.77911 175 ft 33 kts 41°
2026-04-21 18:14 32.70408 -16.76727 181 ft 160 kts 42°
2026-04-21 18:14 32.71259 -16.75727 499 ft 181 kts 40°
2026-04-21 18:14 32.72038 -16.74492 1016 ft 199 kts 65°
2026-04-21 18:15 32.72213 -16.72795 1304 ft 225 kts 100°
2026-04-21 18:15 32.71468 -16.71131 1934 ft 226 kts 131°
2026-04-21 18:15 32.70207 -16.70191 2836 ft 220 kts 170°
2026-04-21 18:15 32.68665 -16.70596 3015 ft 240 kts 218°
2026-04-21 18:16 32.67721 -16.72229 3614 ft 246 kts 246°
2026-04-21 18:16 32.66993 -16.74110 4211 ft 260 kts 243°
2026-04-21 18:16 32.66035 -16.76060 4524 ft 284 kts 232°
2026-04-21 18:16 32.64492 -16.77602 4948 ft 304 kts 206°
2026-04-21 18:17 32.62359 -16.78114 5294 ft 326 kts 177°
2026-04-21 18:17 32.60123 -16.77358 5555 ft 351 kts 152°
2026-04-21 18:17 32.58069 -16.75840 6005 ft 332 kts 149°
2026-04-21 18:17 32.56205 -16.74361 6102 ft 313 kts 148°
2026-04-21 18:18 32.54388 -16.73222 6476 ft 283 kts 164°
2026-04-21 18:18 32.52564 -16.72589 6635 ft 271 kts 167°
2026-04-21 18:18 32.50753 -16.71974 6951 ft 273 kts 167°
2026-04-21 18:18 32.48910 -16.71260 7484 ft 285 kts 162°
2026-04-21 18:19 32.47064 -16.70269 8111 ft 293 kts 154°
2026-04-21 18:19 32.45285 -16.69107 8997 ft 291 kts 159°
2026-04-21 18:19 32.43415 -16.68191 9725 ft 292 kts 166°
2026-04-21 18:19 32.41461 -16.67508 10389 ft 293 kts 171°
2026-04-21 18:20 32.39463 -16.66992 11085 ft 294 kts 174°
2026-04-21 18:20 32.37442 -16.66586 11751 ft 296 kts 176°
2026-04-21 18:20 32.35393 -16.66249 12415 ft 298 kts 177°
2026-04-21 18:20 32.33323 -16.65955 13079 ft 301 kts 178°
2026-04-21 18:21 32.31195 -16.65683 13417 ft 317 kts 178°
2026-04-21 18:21 32.28978 -16.65019 13550 ft 346 kts 156°
2026-04-21 18:21 32.27064 -16.63148 13707 ft 374 kts 130°
2026-04-21 18:21 32.25524 -16.60586 13836 ft 392 kts 127°
2026-04-21 18:22 32.23953 -16.57872 13962 ft 408 kts 127°
2026-04-21 18:22 32.22325 -16.55055 14081 ft 421 kts 127°
2026-04-21 18:22 32.20650 -16.52185 14399 ft 427 kts 127°
2026-04-21 18:22 32.18974 -16.49343 14821 ft 430 kts 127°
2026-04-21 18:23 32.17247 -16.46445 15265 ft 432 kts 127°
2026-04-21 18:23 32.15500 -16.43536 15678 ft 435 kts 127°
2026-04-21 18:23 32.13736 -16.40614 16076 ft 438 kts 128°
2026-04-21 18:23 32.11955 -16.37674 16473 ft 442 kts 128°
2026-04-21 18:24 32.10164 -16.34721 16864 ft 445 kts 128°
2026-04-21 18:24 32.08353 -16.31738 17208 ft 449 kts 128°
2026-04-21 18:24 32.06531 -16.28741 17599 ft 451 kts 128°
2026-04-21 18:24 32.04692 -16.25716 17965 ft 455 kts 128°
2026-04-21 18:25 32.02867 -16.22717 18301 ft 458 kts 128°
2026-04-21 18:25 32.01006 -16.19659 18607 ft 461 kts 127°
2026-04-21 18:25 31.99134 -16.16587 18956 ft 462 kts 127°
2026-04-21 18:25 31.97255 -16.13505 19300 ft 464 kts 127°
2026-04-21 18:26 31.95368 -16.10411 19626 ft 466 kts 127°
2026-04-21 18:26 31.93469 -16.07300 19948 ft 468 kts 127°
2026-04-21 18:26 31.91562 -16.04180 20269 ft 470 kts 127°
2026-04-21 18:26 31.89647 -16.01050 20582 ft 472 kts 127°
2026-04-21 18:27 31.87720 -15.97903 20901 ft 474 kts 127°
2026-04-21 18:27 31.85789 -15.94750 21213 ft 476 kts 127°
2026-04-21 18:27 31.83851 -15.91591 21549 ft 477 kts 127°
2026-04-21 18:27 31.81929 -15.88458 21846 ft 479 kts 127°
2026-04-21 18:28 31.79973 -15.85274 22130 ft 481 kts 127°
2026-04-21 18:28 31.78006 -15.82075 22423 ft 483 kts 127°
2026-04-21 18:28 31.76029 -15.78861 22711 ft 485 kts 127°
2026-04-21 18:28 31.74049 -15.75646 22996 ft 487 kts 127°
2026-04-21 18:29 31.72062 -15.72421 23283 ft 488 kts 127°
2026-04-21 18:29 31.70064 -15.69182 23542 ft 490 kts 127°
2026-04-21 18:29 31.68060 -15.65936 23764 ft 492 kts 127°
2026-04-21 18:29 31.66048 -15.62680 23979 ft 494 kts 127°
2026-04-21 18:30 31.64026 -15.59410 24195 ft 495 kts 127°
2026-04-21 18:30 31.61999 -15.56134 24457 ft 496 kts 127°
2026-04-21 18:30 31.59993 -15.52896 24685 ft 498 kts 127°
2026-04-21 18:30 31.57925 -15.49559 24900 ft 500 kts 127°
2026-04-21 18:31 31.55904 -15.46303 25116 ft 502 kts 127°
2026-04-21 18:31 31.53846 -15.42988 25345 ft 504 kts 127°
2026-04-21 18:31 31.51779 -15.39663 25579 ft 505 kts 127°
2026-04-21 18:31 31.49707 -15.36332 25798 ft 507 kts 127°
2026-04-21 18:32 31.47628 -15.32993 26013 ft 509 kts 127°
2026-04-21 18:32 31.45529 -15.29625 26228 ft 510 kts 127°
2026-04-21 18:32 31.43436 -15.26268 26489 ft 511 kts 127°
2026-04-21 18:32 31.41344 -15.22918 26835 ft 508 kts 126°
2026-04-21 18:33 31.39264 -15.19588 27282 ft 506 kts 126°
2026-04-21 18:33 31.37888 -15.17388 27514 ft 505 kts 126°
2026-04-21 18:33 31.35110 -15.12949 27920 ft 506 kts 126°
2026-04-21 18:33 31.33029 -15.09628 28231 ft 506 kts 126°
2026-04-21 18:34 31.31648 -15.07425 28470 ft 505 kts 126°
2026-04-21 18:34 31.29569 -15.04111 28866 ft 504 kts 126°
2026-04-21 18:34 31.26821 -14.99736 29386 ft 503 kts 126°
2026-04-21 18:34 31.25421 -14.97509 29638 ft 503 kts 126°
2026-04-21 18:35 31.23375 -14.94257 30005 ft 502 kts 126°
2026-04-21 18:35 31.21309 -14.90975 30307 ft 503 kts 126°
2026-04-21 18:35 31.19239 -14.87689 30595 ft 502 kts 126°
2026-04-21 18:35 31.17171 -14.84412 31054 ft 497 kts 126°
2026-04-21 18:36 31.15125 -14.81170 31429 ft 496 kts 126°
2026-04-21 18:36 31.13079 -14.77930 31669 ft 497 kts 126°
2026-04-21 18:36 31.11023 -14.74678 31891 ft 498 kts 126°
2026-04-21 18:36 31.08965 -14.71426 32167 ft 498 kts 126°
2026-04-21 18:37 31.06949 -14.68243 32483 ft 496 kts 126°
2026-04-21 18:37 31.04895 -14.65004 32790 ft 495 kts 126°
2026-04-21 18:37 31.02851 -14.61782 33047 ft 495 kts 126°
2026-04-21 18:37 31.00796 -14.58546 33286 ft 496 kts 126°
2026-04-21 18:38 30.98741 -14.55316 33563 ft 495 kts 126°
2026-04-21 18:38 30.96694 -14.52099 33836 ft 494 kts 126°
2026-04-21 18:38 30.94654 -14.48894 34103 ft 493 kts 126°
2026-04-21 18:38 30.92588 -14.45699 34336 ft 492 kts 129°
2026-04-21 18:39 30.90217 -14.42821 34426 ft 495 kts 139°
2026-04-21 18:39 30.84517 -14.38479 34392 ft 492 kts 156°
2026-04-21 18:40 30.78293 -14.35243 34400 ft 488 kts 157°
2026-04-21 18:40 30.72105 -14.32048 34389 ft 486 kts 157°
2026-04-21 18:41 30.65931 -14.28811 34390 ft 485 kts 156°
2026-04-21 18:41 30.59787 -14.25563 34400 ft 486 kts 156°
2026-04-21 18:42 30.53664 -14.22325 34400 ft 487 kts 156°
2026-04-21 18:42 30.47486 -14.19064 34420 ft 491 kts 156°
2026-04-21 18:42 30.44360 -14.17417 34521 ft 494 kts 156°
2026-04-21 18:43 30.41233 -14.15771 34707 ft 494 kts 156°
2026-04-21 18:43 30.38113 -14.14129 34946 ft 492 kts 156°
2026-04-21 18:43 30.34981 -14.12483 34932 ft 495 kts 156°
2026-04-21 18:44 30.28736 -14.09202 34941 ft 492 kts 156°
2026-04-21 18:44 30.22518 -14.05942 34944 ft 489 kts 156°
2026-04-21 18:45 30.16325 -14.02699 34940 ft 488 kts 156°
2026-04-21 18:45 30.10179 -13.99485 34953 ft 488 kts 156°
2026-04-21 18:46 30.03992 -13.96254 34949 ft 489 kts 156°
2026-04-21 18:46 29.97779 -13.93014 34956 ft 491 kts 156°
2026-04-21 18:47 29.91544 -13.89766 34959 ft 493 kts 156°
2026-04-21 18:47 29.85279 -13.86508 34955 ft 495 kts 156°
2026-04-21 18:48 29.78998 -13.83245 34955 ft 496 kts 156°
2026-04-21 18:48 29.72688 -13.79972 34950 ft 497 kts 156°
2026-04-21 18:49 29.66424 -13.76728 34935 ft 497 kts 156°
2026-04-21 18:49 29.61170 -13.74011 34946 ft 497 kts 156°
2026-04-21 18:50 29.53797 -13.70203 34947 ft 497 kts 156°
2026-04-21 18:50 29.47483 -13.66947 34949 ft 497 kts 156°
2026-04-21 18:51 29.41216 -13.63720 34948 ft 496 kts 156°
2026-04-21 18:51 29.34912 -13.60480 34947 ft 496 kts 156°
2026-04-21 18:52 29.28610 -13.57248 34952 ft 496 kts 156°
2026-04-21 18:52 29.22296 -13.54009 34951 ft 496 kts 156°
2026-04-21 18:52 29.19270 -13.52127 34934 ft 496 kts 142°
2026-04-21 18:53 29.16724 -13.49485 34977 ft 494 kts 129°
2026-04-21 18:53 29.14727 -13.46313 34942 ft 490 kts 115°
2026-04-21 18:53 29.13366 -13.42819 34958 ft 486 kts 108°
2026-04-21 18:54 29.10850 -13.35629 34942 ft 488 kts 109°
2026-04-21 18:54 29.08208 -13.28474 34947 ft 489 kts 110°
2026-04-21 18:54 29.06688 -13.24988 34915 ft 494 kts 123°
2026-04-21 18:55 29.05185 -13.22971 34960 ft 495 kts 136°
2026-04-21 18:55 29.01392 -13.20126 34947 ft 496 kts 159°
2026-04-21 18:55 28.98069 -13.19088 34960 ft 492 kts 175°
2026-04-21 18:55 28.94670 -13.19094 34952 ft 487 kts 192°
2026-04-21 18:56 28.91445 -13.20124 34953 ft 479 kts 208°
2026-04-21 18:56 28.88622 -13.22061 34958 ft 470 kts 224°
2026-04-21 18:56 28.86384 -13.24719 34946 ft 461 kts 239°
2026-04-21 18:56 28.84815 -13.27868 34962 ft 454 kts 252°
2026-04-21 18:57 28.83889 -13.31271 34939 ft 446 kts 265°
2026-04-21 18:57 28.83780 -13.34764 34928 ft 437 kts 284°
2026-04-21 18:57 28.84599 -13.38004 34974 ft 431 kts 294°
2026-04-21 18:58 28.86934 -13.44322 34944 ft 433 kts 296°
2026-04-21 18:58 28.88883 -13.50868 34923 ft 439 kts 285°
2026-04-21 18:59 28.89614 -13.57799 34928 ft 442 kts 276°
2026-04-21 18:59 28.89640 -13.64818 34931 ft 442 kts 272°
2026-04-21 19:00 28.89481 -13.71824 34932 ft 441 kts 272°
2026-04-21 19:00 28.89326 -13.78812 34934 ft 439 kts 272°
2026-04-21 19:01 28.89195 -13.85769 34929 ft 438 kts 272°
2026-04-21 19:01 28.89072 -13.92714 34945 ft 437 kts 272°
2026-04-21 19:02 28.88950 -13.99582 34959 ft 435 kts 272°
2026-04-21 19:02 28.88823 -14.06481 34961 ft 435 kts 272°
2026-04-21 19:03 28.88693 -14.13377 34961 ft 434 kts 272°
2026-04-21 19:03 28.88558 -14.20264 34966 ft 434 kts 272°
2026-04-21 19:04 28.88421 -14.27145 34959 ft 433 kts 271°
2026-04-21 19:04 28.88280 -14.34021 34964 ft 433 kts 271°
2026-04-21 19:05 28.88136 -14.40896 34961 ft 434 kts 271°
2026-04-21 19:05 28.87989 -14.47733 34960 ft 434 kts 271°
2026-04-21 19:06 28.87838 -14.54617 34965 ft 434 kts 271°
2026-04-21 19:06 28.87684 -14.61506 34959 ft 435 kts 271°
2026-04-21 19:07 28.87528 -14.68403 34965 ft 435 kts 271°
2026-04-21 19:07 28.87370 -14.75308 34965 ft 435 kts 271°
2026-04-21 19:08 28.87203 -14.82207 34964 ft 435 kts 270°
2026-04-21 19:08 28.86109 -14.89041 34976 ft 441 kts 258°
2026-04-21 19:09 28.84464 -14.95732 34957 ft 441 kts 257°
2026-04-21 19:09 28.82830 -15.02473 34965 ft 440 kts 258°
2026-04-21 19:10 28.81256 -15.09210 34967 ft 439 kts 258°
2026-04-21 19:10 28.79703 -15.15955 34973 ft 439 kts 258°
2026-04-21 19:11 28.78164 -15.22648 34976 ft 439 kts 258°
2026-04-21 19:11 28.77385 -15.26026 34724 ft 443 kts 258°
2026-04-21 19:11 28.76600 -15.29427 34494 ft 443 kts 258°
2026-04-21 19:11 28.75814 -15.32823 34257 ft 443 kts 258°
2026-04-21 19:12 28.75282 -15.35117 34102 ft 444 kts 258°
2026-04-21 19:12 28.74237 -15.39620 33773 ft 446 kts 257°
2026-04-21 19:12 28.73439 -15.43056 33508 ft 447 kts 257°
2026-04-21 19:12 28.72642 -15.46482 33248 ft 449 kts 257°
2026-04-21 19:13 28.71840 -15.49923 32988 ft 450 kts 257°
2026-04-21 19:13 28.71037 -15.53366 32734 ft 451 kts 257°
2026-04-21 19:13 28.70229 -15.56826 32479 ft 451 kts 257°
2026-04-21 19:13 28.69421 -15.60280 32226 ft 452 kts 257°
2026-04-21 19:14 28.68611 -15.63739 31973 ft 452 kts 257°
2026-04-21 19:14 28.67800 -15.67198 31720 ft 452 kts 257°
2026-04-21 19:14 28.66986 -15.70666 31470 ft 452 kts 257°
2026-04-21 19:14 28.66177 -15.74107 31205 ft 446 kts 257°
2026-04-21 19:15 28.65375 -15.77517 30986 ft 449 kts 257°
2026-04-21 19:15 28.64561 -15.80981 30754 ft 456 kts 257°
2026-04-21 19:15 28.63737 -15.84480 30516 ft 458 kts 257°
2026-04-21 19:15 28.62912 -15.87975 30273 ft 457 kts 257°
2026-04-21 19:16 28.62085 -15.91471 30034 ft 457 kts 257°
2026-04-21 19:16 28.61269 -15.94918 29762 ft 458 kts 257°
2026-04-21 19:16 28.60432 -15.98456 29483 ft 458 kts 257°
2026-04-21 19:16 28.59613 -16.01910 29220 ft 458 kts 256°
2026-04-21 19:17 28.57952 -16.08908 28694 ft 458 kts 256°
2026-04-21 19:17 28.57120 -16.12408 28431 ft 459 kts 256°
2026-04-21 19:17 28.56287 -16.15914 28155 ft 459 kts 256°
2026-04-21 19:18 28.55455 -16.19422 27923 ft 460 kts 256°
2026-04-21 19:18 28.54616 -16.22937 27649 ft 461 kts 256°
2026-04-21 19:18 28.53776 -16.26455 27388 ft 461 kts 257°
2026-04-21 19:18 28.53186 -16.30035 27131 ft 460 kts 264°
2026-04-21 19:19 28.52870 -16.33655 26889 ft 460 kts 266°
2026-04-21 19:19 28.52626 -16.37288 26638 ft 460 kts 266°
2026-04-21 19:19 28.52392 -16.40855 26039 ft 453 kts 266°
2026-04-21 19:19 28.52135 -16.44453 25156 ft 443 kts 265°
2026-04-21 19:20 28.51871 -16.47847 24422 ft 430 kts 265°
2026-04-21 19:20 28.51596 -16.51182 23752 ft 419 kts 265°
2026-04-21 19:20 28.51319 -16.54452 22964 ft 411 kts 265°
2026-04-21 19:20 28.51043 -16.57659 22253 ft 408 kts 265°
2026-04-21 19:21 28.50763 -16.60900 21579 ft 418 kts 265°
2026-04-21 19:21 28.50474 -16.64249 20865 ft 431 kts 265°
2026-04-21 19:21 28.50182 -16.67613 20132 ft 421 kts 265°
2026-04-21 19:21 28.49898 -16.70873 19435 ft 407 kts 265°
2026-04-21 19:22 28.49627 -16.74021 18779 ft 394 kts 265°
2026-04-21 19:22 28.49363 -16.77079 18116 ft 385 kts 265°
2026-04-21 19:22 28.49102 -16.80075 17412 ft 379 kts 265°
2026-04-21 19:22 28.48838 -16.83063 16745 ft 384 kts 265°
2026-04-21 19:23 28.48565 -16.86165 15944 ft 403 kts 264°
2026-04-21 19:23 28.48280 -16.89327 15212 ft 398 kts 264°
2026-04-21 19:23 28.48003 -16.92404 14530 ft 385 kts 264°
2026-04-21 19:23 28.47737 -16.95381 13884 ft 374 kts 264°
2026-04-21 19:24 28.47478 -16.98286 13196 ft 365 kts 264°
2026-04-21 19:24 28.47309 -17.00178 12772 ft 362 kts 264°
2026-04-21 19:24 28.46973 -17.03950 11958 ft 367 kts 264°
2026-04-21 19:24 28.46709 -17.06894 11333 ft 376 kts 264°
2026-04-21 19:25 28.46451 -17.09784 11051 ft 353 kts 264°
2026-04-21 19:25 28.46212 -17.12466 10885 ft 330 kts 264°
2026-04-21 19:25 28.45987 -17.14986 10745 ft 312 kts 264°
2026-04-21 19:25 28.45844 -17.16587 10659 ft 303 kts 263°
2026-04-21 19:26 28.45634 -17.18931 10544 ft 297 kts 264°
2026-04-21 19:26 28.45422 -17.21289 10447 ft 304 kts 263°
2026-04-21 19:26 28.45209 -17.23649 10308 ft 294 kts 263°
2026-04-21 19:26 28.45007 -17.25886 10179 ft 276 kts 263°
2026-04-21 19:27 28.44817 -17.27992 10061 ft 259 kts 263°
2026-04-21 19:27 28.44631 -17.30050 9347 ft 270 kts 264°
2026-04-21 19:27 28.44436 -17.32192 8629 ft 275 kts 264°
2026-04-21 19:27 28.44237 -17.34384 7886 ft 281 kts 264°
2026-04-21 19:28 28.44034 -17.36617 7160 ft 286 kts 264°
2026-04-21 19:28 28.43829 -17.38863 6511 ft 287 kts 264°
2026-04-21 19:28 28.43625 -17.41082 5919 ft 286 kts 264°
2026-04-21 19:28 28.43418 -17.43321 5277 ft 285 kts 264°
2026-04-21 19:29 28.43220 -17.45558 4640 ft 285 kts 266°
2026-04-21 19:29 28.43166 -17.47745 4542 ft 266 kts 269°
2026-04-21 19:29 28.43158 -17.49792 4503 ft 255 kts 269°
2026-04-21 19:29 28.43150 -17.51800 4512 ft 254 kts 269°
2026-04-21 19:30 28.43135 -17.53807 4505 ft 254 kts 269°
2026-04-21 19:30 28.43113 -17.55817 4508 ft 255 kts 269°
2026-04-21 19:30 28.43088 -17.57845 4519 ft 258 kts 269°
2026-04-21 19:30 28.43061 -17.59897 4524 ft 259 kts 269°
2026-04-21 19:31 28.43036 -17.61927 4518 ft 255 kts 269°
2026-04-21 19:31 28.43010 -17.63919 4507 ft 251 kts 269°
2026-04-21 19:31 28.42982 -17.65905 4230 ft 256 kts 269°
2026-04-21 19:31 28.42952 -17.67981 3459 ft 268 kts 269°
2026-04-21 19:32 28.42920 -17.70090 2853 ft 270 kts 269°
2026-04-21 19:32 28.43056 -17.72179 2514 ft 259 kts 289°
2026-04-21 19:32 28.43982 -17.73846 2415 ft 239 kts 321°
2026-04-21 19:32 28.45274 -17.74790 2413 ft 210 kts 339°
2026-04-21 19:33 28.46589 -17.75106 2414 ft 180 kts 354°
2026-04-21 19:33 28.47800 -17.75219 2394 ft 172 kts 356°
2026-04-21 19:33 28.48998 -17.75279 2421 ft 170 kts 358°
2026-04-21 19:33 28.50162 -17.75314 2394 ft 165 kts 358°
2026-04-21 19:34 28.51321 -17.75341 2190 ft 163 kts 358°
2026-04-21 19:34 28.52422 -17.75364 1988 ft 151 kts 358°
2026-04-21 19:34 28.53417 -17.75383 1762 ft 136 kts 358°
2026-04-21 19:34 28.54318 -17.75400 1607 ft 129 kts 358°
2026-04-21 19:35 28.55228 -17.75418 1430 ft 131 kts 358°
2026-04-21 19:35 28.56979 -17.75452 1111 ft 123 kts 358°
2026-04-21 19:35 28.57835 -17.75468 944 ft 124 kts 356°
2026-04-21 19:36 28.58721 -17.75486 785 ft 127 kts 358°
2026-04-21 19:36 28.59607 -17.75507 605 ft 131 kts 358°
2026-04-21 19:36 28.60508 -17.75524 414 ft 125 kts 358°
2026-04-21 19:36 28.61363 -17.75542 208 ft 123 kts 360°
2026-04-21 19:37 28.62224 -17.75558 109 ft 118 kts 360°
2026-04-21 19:37 28.62962 -17.75565 87 ft 65 kts 359°
2026-04-21 19:37 28.63250 -17.75568 79 ft 38 kts 359°
2026-04-21 19:37 28.63427 -17.75558 70 ft 12 kts 356°
2026-04-21 19:38 28.63415 -17.75596 74 ft 9 kts 166°
2026-04-21 19:38 28.63353 -17.75579 75 ft 10 kts 166°
2026-04-21 19:38 28.63225 -17.75567 81 ft 28 kts 179°
2026-04-21 19:38 28.62965 -17.75562 87 ft 46 kts 179°
2026-04-21 19:39 28.62724 -17.75557 93 ft 25 kts 175°
2026-04-21 19:39 28.62614 -17.75482 96 ft 12 kts 138°
2026-04-21 19:39 28.62540 -17.75439 95 ft 12 kts 180°
2026-04-21 19:39 28.62458 -17.75443 98 ft 12 kts 181°
2026-04-21 19:40 28.62378 -17.75443 98 ft 11 kts 179°
2026-04-21 19:40 28.62300 -17.75441 98 ft 11 kts 179°
2026-04-21 19:40 28.62258 -17.75435 100 ft 1 kts 148°
2026-04-21 19:40 28.62252 -17.75427 98 ft 1 kts 124°
2026-04-21 19:41 28.62249 -17.75415 99 ft 1 kts 105°
2026-04-21 19:41 28.62247 -17.75404 114 ft 1 kts 97°
2026-04-21 19:41 28.62246 -17.75393 118 ft 1 kts 97°
2026-04-21 19:41 28.62246 -17.75380 107 ft 2 kts 89°
2026-04-21 19:42 28.62246 -17.75370 100 ft 1 kts 90°
2026-04-21 19:42 28.62246 -17.75363 100 ft 1 kts 90°